Weather History for KBML - September, 2012

Change the Weather History Date:

Monday, September 17, 2012

  Actual Average Record
Temperature  
Mean Temperature 52 °F -  
Max Temperature 75 °F 67 °F 75 °F (2004)
Min Temperature 30 °F 41 °F 28 °F (2011)
Degree Days  
Heating Degree Days 14    
Growing Degree Days 2 (Base 50)    
Moisture  
Dew Point 36 °F    
Average Humidity 84    
Maximum Humidity 100    
Minimum Humidity 42    
Precipitation  
Precipitation 0.00 in - - ()
Sea Level Pressure  
Sea Level Pressure 30.07 in    
Wind  
Wind Speed 0 mph (ENE)    
Max Wind Speed 5 mph    
Max Gust Speed -    
Visibility 4 miles    
Events Fog    
Averages and records for this station are not official NWS values.
T = Trace of Precipitation, MM = Missing Value Source: NWS Daily Summary

Daily Weather History Graph

Daily Weather History Graph

Search for Another Location

Airport or City:

Trip Planner

Search our weather history database for the weather conditions in past years. The results will help you decide how hot, cold, wet, or windy it might be!

Date:

Astronomy

Sep. 17, 2012 Rise Set
Actual Time 6:26 AM EDT 6:50 PM EDT
Civil Twilight 5:57 AM EDT 7:19 PM EDT
Nautical Twilight 5:22 AM EDT 7:54 PM EDT
Astronomical Twilight 4:47 AM EDT 8:29 PM EDT
Moon 8:18 AM EDT (9/17) 7:22 PM EDT (9/17)
Length of Visible Light 13h 22m
Length of Day
12h 24m
Waxing Crescent, 3% of the Moon is Illuminated
Sep 17
Waxing Crescent
Sep 22
First Quarter
Sep 29
Full
Oct 8
Last Quarter
Oct 15
New

Hourly Weather History & Observations

Time (EDT) Temp. Dew Point Humidity Pressure Visibility Wind Dir Wind Speed Gust Speed Precip Events Conditions
12:03 AM 33.8 °F 30.2 °F 87% 30.05 in 2.0 mi Calm Calm - N/A   Mostly Cloudy
12:06 AM 33.8 °F 30.2 °F 87% 30.06 in 0.2 mi Calm Calm - N/A Fog Fog
12:41 AM 33.8 °F 32.0 °F 93% 30.06 in 0.2 mi Calm Calm - N/A Fog Fog
12:52 AM 34.0 °F 32.0 °F 92% 30.09 in 0.2 mi Calm Calm - N/A Fog Fog
1:02 AM 32.0 °F 30.2 °F 93% 30.07 in 1.0 mi Calm Calm - N/A   Mist
1:05 AM 32.0 °F 30.2 °F 93% 30.07 in 2.0 mi Calm Calm - N/A   Mist
1:10 AM 32.0 °F 30.2 °F 93% 30.07 in 5.0 mi Calm Calm - N/A   Mostly Cloudy
1:14 AM 32.0 °F 30.2 °F 93% 30.07 in 1.8 mi Calm Calm - N/A   Mostly Cloudy
1:16 AM 32.0 °F 30.2 °F 93% 30.07 in 0.8 mi Calm Calm - N/A   Mist
1:27 AM 33.8 °F 30.2 °F 87% 30.07 in 0.2 mi Calm Calm - N/A Fog Fog
1:52 AM 32.0 °F 32.0 °F 100% 30.09 in 0.2 mi Calm Calm - N/A Fog Fog
2:52 AM 32.0 °F 30.9 °F 96% 30.08 in 0.2 mi Calm Calm - N/A Fog Fog
3:23 AM 30.2 °F 28.4 °F 93% 30.06 in 1.0 mi Calm Calm - N/A   Mist
3:26 AM 30.2 °F 28.4 °F 93% 30.05 in 2.5 mi Calm Calm - N/A   Overcast
3:36 AM 32.0 °F 30.2 °F 93% 30.05 in 0.8 mi Calm Calm - N/A   Mist
3:47 AM 33.8 °F 32.0 °F 93% 30.06 in 0.2 mi Calm Calm - N/A Fog Fog
3:52 AM 33.1 °F 32.0 °F 96% 30.08 in 0.2 mi Calm Calm - N/A Fog Fog
4:52 AM 32.0 °F 30.9 °F 96% 30.09 in 0.2 mi Calm Calm - N/A Fog Fog
5:52 AM 32.0 °F 30.0 °F 92% 30.11 in 0.2 mi Calm Calm - N/A Fog Fog
6:16 AM 30.2 °F 28.4 °F 93% 30.09 in 0.8 mi Calm Calm - N/A   Mist
6:31 AM 30.2 °F 28.4 °F 93% 30.09 in 1.8 mi Calm Calm - N/A   Mostly Cloudy
6:33 AM 30.2 °F 28.4 °F 93% 30.09 in 3.0 mi Calm Calm - N/A   Overcast
6:41 AM 30.2 °F 28.4 °F 93% 30.09 in 1.0 mi Calm Calm - N/A   Mist
6:44 AM 30.2 °F 28.4 °F 93% 30.09 in 0.2 mi Calm Calm - N/A Fog Light Freezing Fog
6:52 AM 30.0 °F 28.9 °F 96% 30.12 in 0.2 mi Calm Calm - N/A Fog Light Freezing Fog
7:58 AM 35.6 °F 33.8 °F 93% 30.10 in 1.0 mi Calm Calm - N/A   Mist
8:00 AM 35.6 °F 33.8 °F 93% 30.10 in 4.0 mi Calm Calm - N/A   Mostly Cloudy
8:12 AM 35.6 °F 35.6 °F 100% 30.09 in 10.0 mi Calm Calm - N/A   Scattered Clouds
8:22 AM 37.4 °F 35.6 °F 93% 30.08 in 1.0 mi Calm Calm - N/A   Mist
8:26 AM 37.4 °F 35.6 °F 93% 30.08 in 0.2 mi Calm Calm - N/A Fog Fog
8:36 AM 37.4 °F 37.4 °F 100% 30.09 in 1.0 mi Calm Calm - N/A   Mist
8:38 AM 37.4 °F 37.4 °F 100% 30.09 in 3.0 mi Calm Calm - N/A   Scattered Clouds
8:52 AM 39.9 °F 37.9 °F 93% 30.12 in 10.0 mi Calm Calm - N/A   Partly Cloudy
9:52 AM 52.0 °F 41.0 °F 66% 30.10 in 10.0 mi Calm Calm - N/A   Clear
10:52 AM 61.0 °F 39.9 °F 46% 30.09 in 10.0 mi Calm Calm - N/A   Clear
11:52 AM 64.9 °F 42.1 °F 43% 30.07 in 10.0 mi Calm Calm - N/A   Clear
12:52 PM 69.1 °F 46.9 °F 45% 30.05 in 10.0 mi ENE 3.5 mph - N/A   Clear
1:52 PM 71.1 °F 48.9 °F 45% 30.04 in 10.0 mi Calm Calm - N/A   Clear
2:52 PM 73.0 °F 48.9 °F 42% 30.03 in 10.0 mi Calm Calm - N/A   Clear
3:52 PM 73.9 °F 50.0 °F 43% 30.02 in 10.0 mi Variable 4.6 mph - N/A   Clear
4:52 PM 73.0 °F 48.9 °F 42% 30.01 in 10.0 mi Calm Calm - N/A   Clear
5:52 PM 72.0 °F 48.9 °F 44% 30.01 in 10.0 mi Calm Calm - N/A   Clear
6:52 PM 60.1 °F 55.0 °F 83% 30.04 in 10.0 mi Calm Calm - N/A   Clear
7:52 PM 54.0 °F 52.0 °F 93% 30.06 in 10.0 mi Calm Calm - N/A   Clear
8:52 PM 51.1 °F 48.9 °F 92% 30.07 in 10.0 mi Calm Calm - N/A   Clear
9:52 PM 48.0 °F 46.0 °F 93% 30.06 in 10.0 mi Calm Calm - N/A   Clear
10:52 PM 48.9 °F 46.0 °F 90% 30.06 in 10.0 mi Calm Calm - N/A   Clear
11:52 PM 46.0 °F 44.1 °F 93% 30.05 in 10.0 mi Calm Calm - N/A   Clear